Regional Weather Roundup
Issued by NWS

Home | Current Version | Previous Version | Graphics & Text | Print | Product List | Glossary On
Versions: 1 2 3 4 5 6 7 8 9 10 11 12 13 14 15 16 17 18 19 20 21 22 23 24 25 26 27 28 29 30 31 32 33 34 35 36 37 38 39 40 41 42 43 44 45 46 47 48 49 50
363
ASUS43 KMPX 250601
RWRMN
WEATHER ROUNDUP FOR MINNESOTA
NATIONAL WEATHER SERVICE TWIN CITIES/CHANHASSEN MN
100 AM CDT MON JUL 25 2016


NOTE: "FAIR" INDICATES FEW OR NO CLOUDS BELOW 12,000 FEET WITH NO
SIGNIFICANT WEATHER AND/OR OBSTRUCTIONS TO VISIBILITY. N/A MEANS
CURRENT SKY AND/OR WEATHER CONDITIONS ARE NOT AVAILABLE.

MNZ060>063-068>070-250700-
   Twin Cities Metro

CITY           SKY/WX    TMP DP  RH WIND       PRES   REMARKS
TWIN CITIES    CLEAR     72  60  66 W8        29.99R
6HR MIN TEMP:  72; 6HR MAX TEMP:  81;

ST PAUL        CLEAR     73  61  65 W9        29.98R
CRYSTAL        CLEAR     70  60  70 W7        29.97R
BLAINE         CLEAR     70  63  78 W6        29.98R
LAKEVILLE      CLEAR     66  63  88 W5        30.00R
EDEN PRAIRIE   CLEAR     69  62  78 W3        29.99R
6HR MIN TEMP:  68; 6HR MAX TEMP:  82;

LAKEVILLE      CLEAR     66  63  88 W5        30.00R
SOUTH ST PAUL  CLEAR     72  61  68 W6        29.98R
LAKE ELMO      FAIR      70  61  73 W5        29.99S
$$
MNZ001>005-007-008-013>017-022>024-027-028-250700-
   Northwest Minnesota

CITY           SKY/WX    TMP DP  RH WIND       PRES   REMARKS
HALLOCK        CLEAR     63  61  94 CALM      29.94R
ROSEAU         CLEAR     64  59  82 W3        29.94R
WARROAD        CLEAR     63  59  88 W6        29.94R
THIEF RVR FALL CLEAR     63  60  90 W6        29.97R
CROOKSTON      CLEAR     63  61  94 CALM      29.97R
FOSSTON        CLEAR     57  55  94 CALM      29.98R
DETROIT LAKES  CLEAR     66  59  77 W6        30.01S
MOORHEAD       CLEAR     64  59  82 SW7       30.00R
PARK RAPIDS    CLEAR     62  57  83 W5        29.99R
MAHNOMEN       FAIR      62  58  87 W6        29.99R
$$
MNZ006-009>011-018-025>026-250700-
   North Central Minnesota

CITY           SKY/WX    TMP DP  RH WIND       PRES   REMARKS
BAUDETTE       PTCLDY    62  59  90 W7        29.93
FLAG ISLAND    CLEAR     64  61  88 W7        29.91R
INTL FALLS     CLEAR     61  57  87 W5        29.91R
6HR MIN TEMP:  61; 6HR MAX TEMP:  75;

WASKISH        CLEAR     68  63  83 NW9       29.94R
BIG FORK       CLEAR     61  57  88 CALM      29.94S
LONGVILLE      CLEAR     64  61  88 W3        29.97R
GRAND RAPIDS   CLEAR     67  61  81 W8        29.97R
CRANE LAKE     CLEAR     63  57  82 W2        29.91R
ORR            CLEAR     66  55  68 NW7       29.89S
COOK           CLEAR     61  57  88 CALM      29.92R
WALKER         FAIR      64  58  82 W5        29.98R
$$
MNZ012-019>021-037-250700-
   Northeast Minnesota

CITY           SKY/WX    TMP DP  RH WIND       PRES   REMARKS
DULUTH         CLEAR     66  60  81 W9        29.92R
6HR MIN TEMP:  66; 6HR MAX TEMP:  78;

ELY            CLEAR     64  57  77 W9        29.90R
HIBBING        CLEAR     65  59  81 W7        29.92R
EVELETH        PTCLDY    65  58  77 NW5       29.93R
DULUTH HARBOR  CLEAR     72  64  78 W10       29.90S
TWO HARBORS    CLEAR     68  63  83 CALM      29.88R
SILVER BAY     CLEAR     66  61  82 CALM      29.86R
GRAND MARAIS     N/A     69  57  65 VRB7      29.79S
G MARAIS ARPRT CLEAR     64  54  68 W10       29.86R
$$
MNZ029>031-032-039>041-046>048-054>057-064-250700-
   West Central Minnesota

CITY           SKY/WX    TMP DP  RH WIND       PRES   REMARKS
FERGUS FALLS   CLEAR     64  59  82 CALM      30.02S
WHEATON        CLEAR     66  61  82 SW6       30.04R
MORRIS         CLEAR     64  61  88 W7        30.01S
ALEXANDRIA     CLEAR     63  58  83 SW7       30.03S
ELBOW LAKE     FAIR      64  59  84 SW3       30.02S
WADENA         CLEAR     61  57  88 W6        30.00S
GLENWOOD       CLEAR     64  61  88 W6        30.03S
APPLETON       CLEAR     64  61  88 W5        30.02S
BENSON         CLEAR     63  57  82 W5        30.02S
ORTONVILLE     CLEAR     66  59  77 CALM      30.03S
MADISON        CLEAR     64  61  88 W5        30.03S
WILLMAR        FAIR      66  61  82 W3        30.04R
$$
MNZ033>034-036-042>043-049>051-058-059-250700-
   Central Minnesota

CITY           SKY/WX    TMP DP  RH WIND       PRES   REMARKS
ST CLOUD       CLEAR     66  60  81 NW6       29.99R
6HR MIN TEMP:  66; 6HR MAX TEMP:  79;

SAUK CENTRE    FAIR      62  59  89 W3        30.01S
PAYNESVILLE    CLEAR     60  60 100 SW3       30.02S
AITKIN         CLEAR     68  57  68 W3        29.96R
PINE RIVER     CLEAR     64  59  82 CALM      30.01R
BRAINERD       CLEAR     69  59  70 W7        29.98S
STAPLES        CLEAR     63  57  82 W3        30.00R
LONG PRAIRIE   FAIR      63  59  88 SW3       30.02R
LITTLE FALLS   CLEAR     64  55  72 W3        29.99S
LITCHFIELD     CLEAR     70  63  78 W5        30.02R
BUFFALO        CLEAR     68  60  76 W3        30.00S
MAPLE LAKE     CLEAR     68  61  78 W3        30.01R
HUTCHINSON     CLEAR     64  63  95 W5        30.03R
$$
MNZ037-044-045-052-053-250700-
   East Central Minnesota

CITY           SKY/WX    TMP DP  RH WIND       PRES   REMARKS
PRINCETON      CLEAR     64  59  82 CALM      29.98S
MORA           CLEAR     64  59  82 CALM      29.98S
CAMBRIDGE      CLEAR     72  57  60 W5        29.96R
RUSH CITY      PTCLDY    65  60  82 W3        29.96S
MOOSE LAKE     CLEAR     64  59  82 W5        29.93R
HINCKLEY       FAIR      64  63  94 W3        29.96R
CLOQUET        CLEAR     66  59  77 W7        29.93S
MCGREGOR       CLEAR     68  61  77 W6        29.96R
$$
MNZ071>073-080-081-089-090-097-098-250700-
   Southwest Minnesota

CITY           SKY/WX    TMP DP  RH WIND       PRES   REMARKS
MONTEVIDEO     CLEAR     66  61  82 NW3       30.04S
GRANITE FALLS  CLEAR     65  64  94 W5        30.04S
CANBY          CLEAR     67  60  80 W3        30.06S
MARSHALL       CLEAR     64  62  93 W6        30.05S
REDWOOD FALLS  CLEAR     67  62  84 W6        30.02S
OLIVIA         CLEAR     63  59  88 W3        30.02S
PIPESTONE      CLEAR     68  63  83 NW5       30.09R
WINDOM         CLEAR     64  61  88 W6        30.06S
WORTHINGTON    CLEAR     65  62  90 SW8       30.09R
JACKSON        CLEAR     64  59  82 CALM      30.08R
TRACY          CLEAR     68  64  87 W6        30.06S
SLAYTON        CLEAR     64  61  92 W6        30.09R
$$
MNZ065>067-074>077-082>085-091>093-250700-
   South Central Minnesota

CITY           SKY/WX    TMP DP  RH WIND       PRES   REMARKS
MANKATO        CLEAR     66  61  82 W6        30.02S
NEW ULM        CLEAR     64  63  94 W5        30.02S
ST JAMES       CLEAR     63  59  88 W6        30.04S
FAIRMONT       CLEAR     66  61  82 W7        30.03S
GLENCOE        CLEAR     67  64  89 W5        30.01R
FARIBAULT      CLEAR     66  64  94 W3        30.01S
OWATONNA       CLEAR     64  63  94 SW3       30.02S
WASECA         CLEAR     63  61  94 SW3       30.04S
ALBERT LEA     CLEAR     66  64  94 W3        30.03S
$$
MNZ078>079-086>088-094>096-250700-
   Southeast Minnesota

CITY           SKY/WX    TMP DP  RH WIND       PRES   REMARKS
ROCHESTER      CLEAR     65  63  93 W6        30.02R
6HR MIN TEMP:  65; 6HR MAX TEMP:  76;

RED WING       CLEAR     66  64  94 CALM      29.97R
STANTON        CLEAR     68  63  83 W3        29.99R
DODGE CENTER   PTCLDY    66  63  88 W9        30.02S
WINONA         CLEAR     70  63  78 NW7       29.97S
AUSTIN         CLEAR     66  63  88 W5        30.02S
PRESTON        CLEAR     65  61  88 W7        30.02R
$$
ABBREVIATIONS USED IN REMARKS
   TC - TEMPERATURES IN CELSIUS
  WCI - WIND CHILL INDEX
   HX - HEAT INDEX
  VSB - VISIBILITY
$$




USA.gov is the U.S. government's official web portal to all federal, state and local government web resources and services.